Terminal Aerodrome Forecast
Issued by NWS

Home | Current Version | Previous Version | Text Only | Print | Product List | Glossary On
Versions: 1 2 3 4 5 6 7 8 9 10 11 12 13 14
000
FTUS44 KBMX 242344 RRA
TAFMGM
TAF
KMGM 242344Z 2500/2524 11007KT P6SM BKN060
     FM250900 11008KT P6SM OVC015
     FM251800 14006KT 5SM SHRA VCTS SCT020 BKN040CB=

USA.gov is the U.S. government's official web portal to all federal, state and local government web resources and services.